| time (UTC) | temp C | wind direction | speed KPH | gust KPH | rain 1hr cm | rain 24hr cm | rain mn cm | humidity % | barometer mb |
| 20260831005705 | 27 | 186 | 12.9 | 19.3 | 0.00 | 0.00 | 0.00 | 79 | 1017.3 |
| 20260831005206 | 27 | 178 | 11.3 | 20.9 | 0.00 | 0.00 | 0.00 | 79 | 1017.3 |
| 20260831004705 | 27 | 211 | 16.1 | 22.5 | 0.00 | 0.00 | 0.00 | 78 | 1017.3 |
| 20260831004205 | 27 | 203 | 12.9 | 19.3 | 0.00 | 0.00 | 0.00 | 78 | 1017.2 |
| 20260831003705 | 27 | 201 | 11.3 | 19.3 | 0.00 | 0.00 | 0.00 | 78 | 1017.2 |
| 20260831003205 | 27 | 202 | 12.9 | 19.3 | 0.00 | 0.00 | 0.00 | 77 | 1017.2 |
| 20260831002704 | 27 | 173 | 9.7 | 20.9 | 0.00 | 0.00 | 0.00 | 77 | 1017.3 |
| 20260831002205 | 27 | 223 | 11.3 | 19.3 | 0.00 | 0.00 | 0.00 | 77 | 1017.3 |
| 20260831001205 | 27 | 200 | 14.5 | 19.3 | 0.00 | 0.00 | 0.00 | 76 | 1017.1 |
| 20260831000704 | 27 | 190 | 11.3 | 19.3 | 0.00 | 0.00 | 0.00 | 77 | 1017.1 |
| 20260831000205 | 27 | 196 | 12.9 | 19.3 | 0.00 | 0.00 | 0.00 | 77 | 1017.1 |
| 20260830235704 | 27 | 193 | 9.7 | 14.5 | 0.00 | 0.00 | 0.00 | 77 | 1017.0 |
| 20260830234705 | 27 | 189 | 9.7 | 16.1 | 0.00 | 0.00 | 0.00 | 76 | 1017.1 |
| 20260830234204 | 27 | 196 | 9.7 | 16.1 | 0.00 | 0.00 | 0.00 | 76 | 1017.0 |
| 20260830233204 | 27 | 190 | 9.7 | 22.5 | 0.00 | 0.00 | 0.00 | 76 | 1017.1 |
| 20260830232705 | 27 | 192 | 14.5 | 20.9 | 0.00 | 0.00 | 0.00 | 76 | 1017.1 |
| 20260830232205 | 28 | 290 | 8.0 | 14.5 | 0.00 | 0.00 | 0.00 | 76 | 1017.1 |
| 20260830231204 | 28 | 199 | 9.7 | 16.1 | 0.00 | 0.00 | 0.00 | 77 | 1017.2 |
| 20260830230705 | 28 | 235 | 11.3 | 16.1 | 0.00 | 0.00 | 0.00 | 77 | 1017.2 |
| 20260830230205 | 28 | 190 | 9.7 | 14.5 | 0.00 | 0.00 | 0.00 | 76 | 1017.1 |
| 20260830225705 | 28 | 194 | 9.7 | 12.9 | 0.00 | 0.00 | 0.00 | 76 | 1017.1 |
| 20260830225204 | 28 | 200 | 9.7 | 16.1 | 0.00 | 0.00 | 0.00 | 76 | 1017.1 |
| 20260830224705 | 28 | 209 | 11.3 | 19.3 | 0.00 | 0.00 | 0.00 | 76 | 1017.0 |
| 20260830224205 | 28 | 198 | 9.7 | 16.1 | 0.00 | 0.00 | 0.00 | 76 | 1016.9 |
| 20260830223705 | 28 | 232 | 8.0 | 19.3 | 0.00 | 0.00 | 0.00 | 75 | 1016.9 |
| 20260830223205 | 28 | 211 | 11.3 | 19.3 | 0.00 | 0.00 | 0.00 | 75 | 1017.1 |
| 20260830222205 | 28 | 205 | 9.7 | 19.3 | 0.00 | 0.00 | 0.00 | 75 | 1017.1 |
| 20260830221704 | 28 | 6 | 12.9 | 19.3 | 0.00 | 0.00 | 0.00 | 75 | 1017.1 |
| 20260830221205 | 28 | 337 | 11.3 | 19.3 | 0.00 | 0.00 | 0.00 | 73 | 1017.2 |
| 20260830220705 | 28 | 224 | 12.9 | 19.3 | 0.00 | 0.00 | 0.00 | 73 | 1017.2 |
| 20260830220204 | 28 | 315 | 14.5 | 19.3 | 0.00 | 0.00 | 0.00 | 72 | 1017.1 |
| 20260830215704 | 28 | 184 | 16.1 | 22.5 | 0.00 | 0.00 | 0.00 | 72 | 1017.0 |
| 20260830215204 | 29 | 325 | 12.9 | 16.1 | 0.00 | 0.00 | 0.00 | 71 | 1017.1 |
| 20260830214705 | 29 | 335 | 12.9 | 24.1 | 0.00 | 0.00 | 0.00 | 70 | 1016.9 |
| 20260830214205 | 29 | 3 | 12.9 | 20.9 | 0.00 | 0.00 | 0.00 | 71 | 1016.9 |
| 20260830213705 | 29 | 179 | 9.7 | 16.1 | 0.00 | 0.00 | 0.00 | 70 | 1016.9 |
| 20260830213205 | 30 | 179 | 12.9 | 19.3 | 0.00 | 0.00 | 0.00 | 70 | 1016.9 |
| 20260830212705 | 30 | 225 | 9.7 | 16.1 | 0.00 | 0.00 | 0.00 | 68 | 1016.9 |
| 20260830211705 | 30 | 172 | 11.3 | 22.5 | 0.00 | 0.00 | 0.00 | 67 | 1016.8 |
| 20260830210705 | 30 | 351 | 16.1 | 22.5 | 0.00 | 0.00 | 0.00 | 64 | 1016.8 |
| 20260830210205 | 31 | 228 | 14.5 | 20.9 | 0.00 | 0.00 | 0.00 | 67 | 1016.8 |
| 20260830205204 | 31 | 219 | 14.5 | 19.3 | 0.00 | 0.00 | 0.00 | 67 | 1016.9 |
| 20260830204705 | 30 | 225 | 16.1 | 20.9 | 0.00 | 0.00 | 0.00 | 67 | 1016.9 |
| 20260830204205 | 30 | 215 | 11.3 | 14.5 | 0.00 | 0.00 | 0.00 | 69 | 1017.0 |
| 20260830203705 | 30 | 209 | 9.7 | 19.3 | 0.00 | 0.00 | 0.00 | 68 | 1016.9 |
| 20260830203205 | 30 | 186 | 14.5 | 22.5 | 0.00 | 0.00 | 0.00 | 68 | 1017.0 |
| 20260830202705 | 30 | 203 | 12.9 | 20.9 | 0.00 | 0.00 | 0.00 | 68 | 1017.0 |
| 20260830202204 | 30 | 189 | 9.7 | 25.7 | 0.00 | 0.00 | 0.00 | 68 | 1017.1 |
| 20260830201704 | 30 | 203 | 11.3 | 22.5 | 0.00 | 0.00 | 0.00 | 66 | 1017.1 |
| 20260830201205 | 30 | 181 | 12.9 | 22.5 | 0.00 | 0.00 | 0.00 | 68 | 1017.1 |
| 20260830200705 | 30 | 188 | 11.3 | 22.5 | 0.00 | 0.00 | 0.00 | 68 | 1017.2 |
| 20260830200205 | 30 | 205 | 12.9 | 19.3 | 0.00 | 0.00 | 0.00 | 68 | 1017.2 |
| 20260830195705 | 30 | 198 | 11.3 | 19.3 | 0.00 | 0.00 | 0.00 | 68 | 1017.2 |
| 20260830194704 | 30 | 195 | 9.7 | 19.3 | 0.00 | 0.00 | 0.00 | 68 | 1017.5 |
| 20260830194205 | 30 | 9 | 14.5 | 24.1 | 0.00 | 0.00 | 0.00 | 68 | 1017.5 |
| 20260830193705 | 30 | 173 | 16.1 | 25.7 | 0.00 | 0.00 | 0.00 | 69 | 1017.5 |
| 20260830193205 | 30 | 307 | 12.9 | 20.9 | 0.00 | 0.00 | 0.00 | 68 | 1017.5 |
| 20260830192705 | 30 | 233 | 11.3 | 19.3 | 0.00 | 0.00 | 0.00 | 69 | 1017.6 |
| 20260830191704 | 30 | 163 | 16.1 | 22.5 | 0.00 | 0.00 | 0.00 | 69 | 1017.8 |
| 20260830191205 | 30 | 183 | 12.9 | 24.1 | 0.00 | 0.00 | 0.00 | 70 | 1018.0 |
| 20260830190705 | 30 | 188 | 14.5 | 20.9 | 0.00 | 0.00 | 0.00 | 68 | 1018.1 |
| 20260830190205 | 30 | 225 | 14.5 | 19.3 | 0.00 | 0.00 | 0.00 | 68 | 1018.3 |
| 20260830185704 | 30 | 221 | 14.5 | 20.9 | 0.00 | 0.00 | 0.00 | 70 | 1018.3 |
| 20260830185205 | 30 | 221 | 9.7 | 16.1 | 0.00 | 0.00 | 0.00 | 68 | 1018.2 |
| 20260830184705 | 30 | 183 | 8.0 | 19.3 | 0.00 | 0.00 | 0.00 | 73 | 1018.2 |
| 20260830184205 | 30 | 191 | 14.5 | 20.9 | 0.00 | 0.00 | 0.00 | 68 | 1018.5 |
| 20260830183705 | 30 | 193 | 11.3 | 20.9 | 0.00 | 0.00 | 0.00 | 69 | 1018.7 |
| 20260830183204 | 30 | 193 | 12.9 | 22.5 | 0.00 | 0.00 | 0.00 | 68 | 1018.8 |
| 20260830182705 | 30 | 196 | 11.3 | 19.3 | 0.00 | 0.00 | 0.00 | 69 | 1018.8 |
| 20260830182204 | 30 | 215 | 14.5 | 19.3 | 0.00 | 0.00 | 0.00 | 68 | 1018.8 |
| 20260830181705 | 30 | 188 | 14.5 | 25.7 | 0.00 | 0.00 | 0.00 | 68 | 1018.8 |
| 20260830181205 | 30 | 215 | 9.7 | 16.1 | 0.00 | 0.00 | 0.00 | 69 | 1018.8 |
| 20260830180705 | 30 | 203 | 12.9 | 20.9 | 0.00 | 0.00 | 0.00 | 65 | 1018.9 |
| 20260830175705 | 30 | 217 | 11.3 | 19.3 | 0.00 | 0.00 | 0.00 | 68 | 1019.0 |
| 20260830175205 | 30 | 242 | 12.9 | 22.5 | 0.00 | 0.00 | 0.00 | 65 | 1019.0 |
| 20260830174705 | 30 | 220 | 19.3 | 24.1 | 0.00 | 0.00 | 0.00 | 70 | 1019.1 |
| 20260830174205 | 30 | 218 | 17.7 | 25.7 | 0.00 | 0.00 | 0.00 | 67 | 1019.2 |
| 20260830173705 | 30 | 212 | 16.1 | 27.4 | 0.00 | 0.00 | 0.00 | 68 | 1019.2 |
| 20260830173204 | 30 | 222 | 17.7 | 29.0 | 0.00 | 0.00 | 0.00 | 70 | 1019.3 |
| 20260830172705 | 30 | 168 | 19.3 | 25.7 | 0.00 | 0.00 | 0.00 | 68 | 1019.5 |
| 20260830172205 | 30 | 216 | 19.3 | 27.4 | 0.00 | 0.00 | 0.00 | 69 | 1019.5 |
| 20260830171705 | 30 | 204 | 16.1 | 24.1 | 0.00 | 0.00 | 0.00 | 69 | 1019.6 |
| 20260830171204 | 30 | 218 | 17.7 | 24.1 | 0.00 | 0.00 | 0.00 | 69 | 1019.7 |
| 20260830170204 | 30 | 179 | 16.1 | 22.5 | 0.00 | 0.00 | 0.00 | 69 | 1019.8 |
| 20260830165705 | 30 | 202 | 16.1 | 22.5 | 0.00 | 0.00 | 0.00 | 68 | 1019.9 |
| 20260830164705 | 30 | 228 | 19.3 | 25.7 | 0.00 | 0.00 | 0.00 | 71 | 1019.9 |
| 20260830164205 | 30 | 237 | 16.1 | 24.1 | 0.00 | 0.00 | 0.00 | 68 | 1020.0 |
| 20260830163704 | 30 | 203 | 16.1 | 24.1 | 0.00 | 0.00 | 0.00 | 69 | 1020.0 |
| 20260830162704 | 30 | 220 | 14.5 | 24.1 | 0.00 | 0.00 | 0.00 | 69 | 1020.1 |
| 20260830162204 | 30 | 218 | 16.1 | 22.5 | 0.00 | 0.00 | 0.00 | 68 | 1020.1 |
| 20260830161704 | 30 | 198 | 17.7 | 24.1 | 0.00 | 0.00 | 0.00 | 74 | 1020.1 |
| 20260830161204 | 29 | 213 | 14.5 | 25.7 | 0.00 | 0.00 | 0.00 | 72 | 1020.0 |
| 20260830160704 | 29 | 221 | 19.3 | 25.7 | 0.00 | 0.00 | 0.00 | 73 | 1020.1 |
| 20260830160205 | 29 | 211 | 22.5 | 29.0 | 0.00 | 0.00 | 0.00 | 73 | 1020.1 |
| 20260830155704 | 29 | 204 | 19.3 | 29.0 | 0.00 | 0.00 | 0.00 | 74 | 1020.1 |
| 20260830155204 | 28 | 222 | 19.3 | 25.7 | 0.00 | 0.00 | 0.00 | 72 | 1020.1 |
| 20260830154704 | 29 | 193 | 20.9 | 32.2 | 0.00 | 0.00 | 0.00 | 74 | 1020.1 |
| 20260830154204 | 29 | 190 | 19.3 | 22.5 | 0.00 | 0.00 | 0.00 | 72 | 1020.1 |
| 20260830153704 | 29 | 197 | 16.1 | 25.7 | 0.00 | 0.00 | 0.00 | 73 | 1020.1 |
| 20260830153205 | 29 | 205 | 16.1 | 27.4 | 0.00 | 0.00 | 0.00 | 73 | 1020.1 |
| 20260830152704 | 29 | 214 | 17.7 | 25.7 | 0.00 | 0.00 | 0.00 | 73 | 1020.1 |
| 20260830151704 | 29 | 192 | 19.3 | 27.4 | 0.00 | 0.00 | 0.00 | 71 | 1020.4 |
| 20260830151205 | 29 | 199 | 19.3 | 29.0 | 0.00 | 0.00 | 0.00 | 73 | 1020.3 |
| 20260830150704 | 29 | 209 | 20.9 | 25.7 | 0.00 | 0.00 | 0.00 | 71 | 1020.2 |
| 20260830150204 | 29 | 195 | 19.3 | 22.5 | 0.00 | 0.00 | 0.00 | 71 | 1020.2 |
| 20260830145705 | 29 | 212 | 20.9 | 25.7 | 0.00 | 0.00 | 0.00 | 73 | 1020.2 |
| 20260830145204 | 29 | 212 | 20.9 | 32.2 | 0.00 | 0.00 | 0.00 | 74 | 1020.3 |
| 20260830144705 | 29 | 224 | 17.7 | 22.5 | 0.00 | 0.00 | 0.00 | 75 | 1020.2 |
| 20260830144204 | 28 | 202 | 20.9 | 27.4 | 0.00 | 0.00 | 0.00 | 75 | 1020.2 |
| 20260830143705 | 28 | 215 | 19.3 | 25.7 | 0.00 | 0.00 | 0.00 | 75 | 1020.2 |
| 20260830142705 | 28 | 222 | 20.9 | 27.4 | 0.00 | 0.00 | 0.00 | 75 | 1020.3 |
| 20260830142204 | 28 | 224 | 22.5 | 32.2 | 0.00 | 0.00 | 0.00 | 75 | 1020.4 |
| 20260830141704 | 27 | 221 | 24.1 | 32.2 | 0.00 | 0.00 | 0.00 | 77 | 1020.5 |
| 20260830140704 | 27 | 200 | 19.3 | 22.5 | 0.00 | 0.00 | 0.00 | 77 | 1020.5 |
| 20260830140204 | 27 | 209 | 16.1 | 22.5 | 0.00 | 0.00 | 0.00 | 77 | 1020.6 |
| 20260830135705 | 27 | 210 | 17.7 | 22.5 | 0.00 | 0.00 | 0.00 | 77 | 1020.6 |
| 20260830135204 | 27 | 213 | 19.3 | 25.7 | 0.00 | 0.00 | 0.00 | 77 | 1020.6 |
| 20260830134704 | 27 | 209 | 17.7 | 27.4 | 0.00 | 0.00 | 0.00 | 78 | 1020.6 |
| 20260830134204 | 27 | 212 | 17.7 | 25.7 | 0.00 | 0.00 | 0.00 | 79 | 1020.8 |
| 20260830133705 | 27 | 221 | 17.7 | 24.1 | 0.00 | 0.00 | 0.00 | 79 | 1020.8 |
| 20260830132704 | 27 | 184 | 12.9 | 19.3 | 0.00 | 0.00 | 0.00 | 79 | 1020.9 |
| 20260830132204 | 27 | 202 | 11.3 | 19.3 | 0.00 | 0.00 | 0.00 | 79 | 1020.9 |
| 20260830131705 | 27 | 164 | 11.3 | 19.3 | 0.00 | 0.00 | 0.00 | 81 | 1021.0 |
| 20260830131204 | 27 | 214 | 11.3 | 19.3 | 0.00 | 0.00 | 0.00 | 80 | 1021.0 |
| 20260830130704 | 26 | 201 | 11.3 | 16.1 | 0.00 | 0.00 | 0.00 | 81 | 1021.1 |
| 20260830130205 | 26 | 193 | 9.7 | 16.1 | 0.00 | 0.00 | 0.00 | 81 | 1021.1 |
| 20260830125705 | 26 | 198 | 9.7 | 19.3 | 0.00 | 0.00 | 0.00 | 82 | 1021.1 |
| 20260830125204 | 26 | 186 | 9.7 | 19.3 | 0.00 | 0.00 | 0.00 | 83 | 1021.0 |
| 20260830123704 | 25 | 202 | 9.7 | 16.1 | 0.00 | 0.00 | 0.00 | 84 | 1021.2 |
| 20260830123205 | 25 | 208 | 11.3 | 19.3 | 0.00 | 0.00 | 0.00 | 84 | 1021.2 |
| 20260830122705 | 25 | 167 | 11.3 | 19.3 | 0.00 | 0.00 | 0.00 | 86 | 1021.3 |
| 20260830121704 | 25 | 194 | 8.0 | 14.5 | 0.00 | 0.00 | 0.00 | 86 | 1021.3 |
| 20260830121204 | 25 | 190 | 8.0 | 16.1 | 0.00 | 0.00 | 0.00 | 88 | 1021.4 |
| 20260830120204 | 24 | 199 | 9.7 | 14.5 | 0.00 | 0.00 | 0.00 | 90 | 1021.4 |
| 20260830115705 | 23 | 195 | 8.0 | 12.9 | 0.00 | 0.00 | 0.00 | 91 | 1021.4 |
| 20260830115204 | 23 | 190 | 4.8 | 9.7 | 0.00 | 0.00 | 0.00 | 91 | 1021.3 |
| 20260830114704 | 23 | 192 | 8.0 | 12.9 | 0.00 | 0.00 | 0.00 | 92 | 1021.3 |
| 20260830114205 | 23 | 164 | 4.8 | 8.0 | 0.00 | 0.00 | 0.00 | 91 | 1021.3 |
| 20260830113705 | 23 | 185 | 4.8 | 11.3 | 0.00 | 0.00 | 0.00 | 91 | 1021.3 |
| 20260830113204 | 23 | 173 | 6.4 | 9.7 | 0.00 | 0.00 | 0.00 | 91 | 1021.3 |
| 20260830112704 | 23 | 180 | 6.4 | 11.3 | 0.00 | 0.00 | 0.00 | 91 | 1021.4 |
| 20260830112204 | 23 | 188 | 4.8 | 12.9 | 0.00 | 0.00 | 0.00 | 91 | 1021.5 |
| 20260830111705 | 22 | 174 | 3.2 | 8.0 | 0.00 | 0.00 | 0.00 | 91 | 1021.4 |
| 20260830111204 | 22 | 200 | 3.2 | 9.7 | 0.00 | 0.00 | 0.00 | 91 | 1021.4 |
| 20260830110704 | 22 | 182 | 4.8 | 12.9 | 0.00 | 0.00 | 0.00 | 91 | 1021.5 |
| 20260830110205 | 22 | 169 | 6.4 | 11.3 | 0.00 | 0.00 | 0.00 | 91 | 1021.4 |
| 20260830105704 | 22 | 173 | 6.4 | 11.3 | 0.00 | 0.00 | 0.00 | 91 | 1021.3 |
| 20260830105205 | 22 | 190 | 4.8 | 8.0 | 0.00 | 0.00 | 0.00 | 91 | 1021.2 |
| 20260830104704 | 22 | 192 | 6.4 | 11.3 | 0.00 | 0.00 | 0.00 | 91 | 1021.1 |
| 20260830104204 | 22 | 163 | 6.4 | 11.3 | 0.00 | 0.00 | 0.00 | 91 | 1021.2 |
| 20260830103704 | 22 | 154 | 4.8 | 11.3 | 0.00 | 0.00 | 0.00 | 91 | 1021.1 |
| 20260830103205 | 22 | 157 | 4.8 | 8.0 | 0.00 | 0.00 | 0.00 | 90 | 1021.1 |
| 20260830102705 | 22 | 141 | 3.2 | 4.8 | 0.00 | 0.00 | 0.00 | 90 | 1021.1 |
| 20260830102205 | 22 | 171 | 3.2 | 4.8 | 0.00 | 0.00 | 0.00 | 91 | 1021.0 |
| 20260830101704 | 22 | 157 | 4.8 | 8.0 | 0.00 | 0.00 | 0.00 | 90 | 1021.0 |
| 20260830101204 | 22 | 160 | 1.6 | 4.8 | 0.00 | 0.00 | 0.00 | 90 | 1021.0 |
| 20260830100704 | 22 | 191 | 4.8 | 12.9 | 0.00 | 0.00 | 0.00 | 91 | 1020.8 |
| 20260830100204 | 22 | 170 | 4.8 | 9.7 | 0.00 | 0.00 | 0.00 | 91 | 1020.7 |
| 20260830095705 | 22 | 160 | 6.4 | 12.9 | 0.00 | 0.00 | 0.00 | 90 | 1020.7 |
| 20260830095205 | 22 | 149 | 3.2 | 14.5 | 0.00 | 0.00 | 0.00 | 90 | 1020.7 |
| 20260830094705 | 22 | 145 | 3.2 | 9.7 | 0.00 | 0.00 | 0.00 | 90 | 1020.7 |
| 20260830094205 | 22 | 169 | 4.8 | 8.0 | 0.00 | 0.00 | 0.00 | 90 | 1020.8 |
| 20260830093705 | 22 | 155 | 8.0 | 11.3 | 0.00 | 0.00 | 0.00 | 90 | 1020.8 |
| 20260830093205 | 22 | 184 | 8.0 | 12.9 | 0.00 | 0.00 | 0.00 | 90 | 1021.0 |
| 20260830092204 | 22 | 177 | 8.0 | 14.5 | 0.00 | 0.00 | 0.00 | 90 | 1020.9 |
| 20260830091704 | 22 | 168 | 4.8 | 12.9 | 0.00 | 0.00 | 0.00 | 90 | 1020.9 |
| 20260830091204 | 22 | 167 | 6.4 | 12.9 | 0.00 | 0.00 | 0.00 | 90 | 1020.9 |
| 20260830090705 | 22 | 160 | 4.8 | 11.3 | 0.00 | 0.00 | 0.00 | 90 | 1020.9 |
| 20260830090204 | 22 | 175 | 8.0 | 11.3 | 0.00 | 0.00 | 0.00 | 90 | 1020.9 |
| 20260830085704 | 22 | 173 | 4.8 | 9.7 | 0.00 | 0.00 | 0.00 | 90 | 1021.0 |
| 20260830085204 | 22 | 154 | 3.2 | 4.8 | 0.00 | 0.00 | 0.00 | 89 | 1021.0 |
| 20260830084704 | 22 | 148 | 3.2 | 9.7 | 0.00 | 0.00 | 0.00 | 89 | 1021.0 |
| 20260830084204 | 22 | 167 | 4.8 | 9.7 | 0.00 | 0.00 | 0.00 | 89 | 1020.9 |
| 20260830083704 | 22 | 139 | 3.2 | 9.7 | 0.00 | 0.00 | 0.00 | 89 | 1020.9 |
| 20260830083204 | 22 | 174 | 8.0 | 11.3 | 0.00 | 0.00 | 0.00 | 90 | 1020.9 |
| 20260830082205 | 22 | 153 | 6.4 | 12.9 | 0.00 | 0.00 | 0.00 | 90 | 1020.9 |
| 20260830081704 | 22 | 156 | 8.0 | 12.9 | 0.00 | 0.00 | 0.00 | 89 | 1020.9 |
| 20260830081204 | 22 | 176 | 3.2 | 8.0 | 0.00 | 0.00 | 0.00 | 89 | 1020.9 |
| 20260830080704 | 22 | 172 | 4.8 | 11.3 | 0.00 | 0.00 | 0.00 | 89 | 1020.9 |
| 20260830080205 | 22 | 167 | 6.4 | 14.5 | 0.00 | 0.00 | 0.00 | 89 | 1020.9 |
| 20260830075704 | 22 | 172 | 8.0 | 12.9 | 0.00 | 0.00 | 0.00 | 89 | 1020.9 |
| 20260830075205 | 22 | 164 | 6.4 | 11.3 | 0.00 | 0.00 | 0.00 | 88 | 1021.0 |
| 20260830074705 | 22 | 175 | 6.4 | 12.9 | 0.00 | 0.00 | 0.00 | 88 | 1021.0 |
| 20260830074205 | 22 | 174 | 3.2 | 9.7 | 0.00 | 0.00 | 0.00 | 88 | 1021.0 |
| 20260830073705 | 22 | 177 | 4.8 | 9.7 | 0.00 | 0.00 | 0.00 | 88 | 1021.0 |
| 20260830073205 | 22 | 170 | 6.4 | 12.9 | 0.00 | 0.00 | 0.00 | 88 | 1021.0 |
| 20260830072704 | 22 | 175 | 4.8 | 14.5 | 0.00 | 0.00 | 0.00 | 88 | 1021.0 |
| 20260830072204 | 22 | 192 | 8.0 | 12.9 | 0.00 | 0.00 | 0.00 | 88 | 1021.0 |
| 20260830071704 | 22 | 168 | 6.4 | 12.9 | 0.00 | 0.00 | 0.00 | 88 | 1021.0 |
| 20260830071204 | 22 | 167 | 4.8 | 14.5 | 0.00 | 0.00 | 0.00 | 88 | 1021.0 |
| 20260830070705 | 22 | 162 | 8.0 | 12.9 | 0.00 | 0.00 | 0.00 | 88 | 1021.0 |
| 20260830070204 | 22 | 160 | 6.4 | 12.9 | 0.00 | 0.00 | 0.00 | 88 | 1021.0 |
| 20260830065704 | 22 | 174 | 8.0 | 11.3 | 0.00 | 0.00 | 0.00 | 88 | 1021.1 |
| 20260830065205 | 22 | 174 | 8.0 | 12.9 | 0.00 | 0.00 | 0.00 | 88 | 1021.2 |
| 20260830064704 | 22 | 173 | 8.0 | 14.5 | 0.00 | 0.00 | 0.00 | 88 | 1021.2 |
| 20260830064204 | 22 | 164 | 8.0 | 19.3 | 0.00 | 0.00 | 0.00 | 88 | 1021.4 |
| 20260830063704 | 22 | 173 | 4.8 | 9.7 | 0.00 | 0.00 | 0.00 | 88 | 1021.4 |
| 20260830063205 | 22 | 175 | 8.0 | 9.7 | 0.00 | 0.00 | 0.00 | 89 | 1021.5 |
| 20260830062704 | 22 | 171 | 4.8 | 9.7 | 0.00 | 0.00 | 0.00 | 89 | 1021.5 |
| 20260830062205 | 21 | 157 | 4.8 | 11.3 | 0.00 | 0.00 | 0.00 | 89 | 1021.7 |
| 20260830061704 | 21 | 167 | 4.8 | 14.5 | 0.00 | 0.00 | 0.00 | 89 | 1021.8 |
| 20260830061205 | 21 | 176 | 4.8 | 9.7 | 0.00 | 0.00 | 0.00 | 90 | 1021.7 |
| 20260830060705 | 21 | 136 | 3.2 | 8.0 | 0.00 | 0.00 | 0.00 | 89 | 1021.7 |
| 20260830060204 | 21 | 142 | 4.8 | 11.3 | 0.00 | 0.00 | 0.00 | 90 | 1021.7 |
| 20260830055704 | 21 | 166 | 4.8 | 9.7 | 0.00 | 0.00 | 0.00 | 90 | 1021.7 |
| 20260830054704 | 21 | 166 | 3.2 | 8.0 | 0.00 | 0.00 | 0.00 | 90 | 1021.6 |
| 20260830054205 | 21 | 148 | 8.0 | 11.3 | 0.00 | 0.00 | 0.00 | 91 | 1021.7 |
| 20260830053705 | 21 | 156 | 8.0 | 11.3 | 0.00 | 0.00 | 0.00 | 91 | 1021.8 |
| 20260830052704 | 21 | 184 | 8.0 | 14.5 | 0.00 | 0.00 | 0.00 | 92 | 1021.7 |
| 20260830052204 | 21 | 170 | 4.8 | 9.7 | 0.00 | 0.00 | 0.00 | 92 | 1021.7 |
| 20260830051704 | 21 | 163 | 4.8 | 11.3 | 0.00 | 0.00 | 0.00 | 93 | 1021.7 |
| 20260830051204 | 21 | 155 | 4.8 | 9.7 | 0.00 | 0.00 | 0.00 | 93 | 1021.6 |
| 20260830050204 | 20 | 148 | 6.4 | 12.9 | 0.00 | 0.00 | 0.00 | 93 | 1021.6 |
| 20260830045204 | 20 | 162 | 4.8 | 8.0 | 0.00 | 0.00 | 0.00 | 92 | 1021.6 |
| 20260830044705 | 20 | 157 | 1.6 | 4.8 | 0.00 | 0.00 | 0.00 | 91 | 1021.7 |
| 20260830044205 | 20 | 164 | 1.6 | 4.8 | 0.00 | 0.00 | 0.00 | 91 | 1021.6 |
| 20260830043704 | 20 | 100 | 0.0 | 0.0 | 0.00 | 0.00 | 0.00 | 90 | 1021.5 |
| 20260830043204 | 20 | 5 | 0.0 | 0.0 | 0.00 | 0.00 | 0.00 | 90 | 1021.4 |
| 20260830042204 | 20 | 5 | 1.6 | 3.2 | 0.00 | 0.00 | 0.00 | 90 | 1021.4 |
| 20260830041204 | 20 | 102 | 3.2 | 4.8 | 0.00 | 0.00 | 0.00 | 90 | 1021.3 |
| 20260830040705 | 20 | 112 | 0.0 | 1.6 | 0.00 | 0.00 | 0.00 | 90 | 1021.3 |
| 20260830040204 | 20 | 112 | 1.6 | 4.8 | 0.00 | 0.00 | 0.00 | 89 | 1021.2 |
| 20260830035205 | 20 | 112 | 1.6 | 3.2 | 0.00 | 0.00 | 0.00 | 89 | 1021.2 |
| 20260830034704 | 20 | 112 | 1.6 | 3.2 | 0.00 | 0.00 | 0.00 | 89 | 1021.2 |
| 20260830034205 | 20 | 112 | 3.2 | 4.8 | 0.00 | 0.00 | 0.00 | 88 | 1021.1 |
| 20260830033704 | 20 | 112 | 1.6 | 3.2 | 0.00 | 0.00 | 0.00 | 88 | 1021.1 |
| 20260830033205 | 20 | 103 | 0.0 | 3.2 | 0.00 | 0.00 | 0.00 | 88 | 1021.1 |
| 20260830032704 | 20 | 100 | 0.0 | 1.6 | 0.00 | 0.00 | 0.00 | 88 | 1021.0 |
| 20260830032204 | 20 | 100 | 0.0 | 3.2 | 0.00 | 0.00 | 0.00 | 88 | 1021.1 |
| 20260830031704 | 20 | 100 | 1.6 | 3.2 | 0.00 | 0.00 | 0.00 | 87 | 1021.1 |
| 20260830031204 | 20 | 100 | 1.6 | 3.2 | 0.00 | 0.00 | 0.00 | 87 | 1021.0 |
| 20260830030705 | 20 | 100 | 0.0 | 1.6 | 0.00 | 0.00 | 0.00 | 87 | 1021.1 |
| 20260830030204 | 20 | 100 | 1.6 | 3.2 | 0.00 | 0.00 | 0.00 | 88 | 1021.1 |
| 20260830025704 | 20 | 100 | 1.6 | 3.2 | 0.00 | 0.00 | 0.00 | 88 | 1021.1 |
| 20260830025204 | 20 | 100 | 1.6 | 3.2 | 0.00 | 0.00 | 0.00 | 89 | 1021.1 |
| 20260830024704 | 20 | 111 | 0.0 | 3.2 | 0.00 | 0.00 | 0.00 | 89 | 1021.2 |
| 20260830024204 | 20 | 108 | 0.0 | 3.2 | 0.00 | 0.00 | 0.00 | 89 | 1021.1 |
| 20260830023704 | 20 | 103 | 1.6 | 3.2 | 0.00 | 0.00 | 0.00 | 88 | 1021.1 |
| 20260830023204 | 20 | 95 | 1.6 | 4.8 | 0.00 | 0.00 | 0.00 | 87 | 1021.1 |
| 20260830022704 | 20 | 84 | 0.0 | 3.2 | 0.00 | 0.00 | 0.00 | 87 | 1021.1 |
| 20260830022205 | 20 | 84 | 1.6 | 3.2 | 0.00 | 0.00 | 0.00 | 87 | 1021.1 |
| 20260830021704 | 20 | 90 | 1.6 | 3.2 | 0.00 | 0.00 | 0.00 | 88 | 1021.1 |
| 20260830021204 | 20 | 90 | 1.6 | 4.8 | 0.00 | 0.00 | 0.00 | 88 | 1021.0 |
| 20260830020704 | 20 | 101 | 1.6 | 3.2 | 0.00 | 0.00 | 0.00 | 87 | 1021.1 |
| 20260830020204 | 20 | 72 | 1.6 | 3.2 | 0.00 | 0.00 | 0.00 | 86 | 1021.0 |
| 20260830015704 | 20 | 52 | 1.6 | 3.2 | 0.00 | 0.00 | 0.00 | 86 | 1020.9 |
| 20260830015204 | 20 | 52 | 1.6 | 3.2 | 0.00 | 0.00 | 0.00 | 85 | 1020.9 |
| 20260830014705 | 20 | 52 | 0.0 | 1.6 | 0.00 | 0.00 | 0.00 | 85 | 1021.0 |
| 20260830014204 | 20 | 52 | 0.0 | 0.0 | 0.00 | 0.00 | 0.00 | 85 | 1021.0 |
| 20260830013704 | 20 | 52 | 0.0 | 0.0 | 0.00 | 0.00 | 0.00 | 85 | 1020.9 |
| 20260830012704 | 21 | 52 | 0.0 | 0.0 | 0.00 | 0.00 | 0.00 | 84 | 1020.8 |
| 20260830012204 | 21 | 52 | 0.0 | 1.6 | 0.00 | 0.00 | 0.00 | 84 | 1020.7 |
| 20260830011704 | 21 | 82 | 0.0 | 1.6 | 0.00 | 0.00 | 0.00 | 84 | 1020.7 |
| 20260830011204 | 21 | 82 | 0.0 | 0.0 | 0.00 | 0.00 | 0.00 | 84 | 1020.7 |
| 20260830010704 | 21 | 82 | 0.0 | 0.0 | 0.00 | 0.00 | 0.00 | 83 | 1020.7 |